Home > Weather > Scranton > Past weeks

Flag for USA Weather for the Past 2 Weeks in Scranton, Pennsylvania, USA

Now
53 °F

Overcast.


Feels Like: 50 °F
Forecast: 46 / 52 °F
Wind: 10 mph from Southeast

Location: Barre - Scranton - Wilkes-Barre / Scranton International Airport

Current Time: May 1, 2016 at 12:32:50 AM

Latest Report: Apr 30, 2016 at 11:54 PM


Visibility: 10 mi

Pressure: 30.14 "Hg

Humidity: 61%

Dew Point: 40 °F

Location of ScrantonLocation

Historic Weather in Scranton — Graph

°F

Scranton Temperature Yesterday

Maximum temperature yesterday: 56 °F (at 4:54 PM)
Minimum temperature yesterday: 41 °F (at 3:54 AM)
Average temperature yesterday: 49 °F

High & Low Weather Summary for the Past Weeks

 TemperatureHumidityPressure
High78 °F (Apr 18, 4:54 PM)97% (Apr 26, 6:54 AM)30.45 "Hg (Apr 26, 6:54 AM)
Low32 °F (Apr 24, 5:54 AM)12% (Apr 20, 3:54 PM)29.60 "Hg (Apr 26, 12:54 PM)
Average55 °F49%30.06 "Hg
* Reported Apr 15 9:54 PM — Apr 30 9:54 PM, Scranton, Weather by CustomWeather, © 2016

Note: Actual official high and low records may vary slightly from our data, if they occured in-between our weather recording intervals... More about our weather records

Advertising

Scranton Weather History for the Previous 24 Hours

Scroll right to see more
 ConditionsComfort  
Time TempWeatherWind HumidityBarometerVisibility
9:54 PM
Sat, Apr 30
53 °FOvercast.3 mph64%30.19 "Hg10 mi
8:54 PM54 °FOvercast.No wind62%30.18 "Hg10 mi
7:54 PM55 °FOvercast.6 mph57%30.18 "Hg7 mi
6:54 PM55 °FOvercast.No wind57%30.19 "Hg10 mi
5:54 PM56 °FOvercast.3 mph55%30.18 "Hg10 mi
4:54 PM56 °FOvercast.No wind55%30.17 "Hg10 mi
3:54 PM55 °FOvercast.5 mph57%30.17 "Hg10 mi
2:54 PM55 °FOvercast.No wind57%30.18 "Hg10 mi
1:54 PM54 °FOvercast.No wind59%30.19 "Hg10 mi
12:54 PM53 °FOvercast.3 mph61%30.18 "Hg10 mi
11:54 AM53 °FBroken clouds.No wind64%30.19 "Hg10 mi
10:54 AM50 °FOvercast.No wind71%30.20 "Hg10 mi
9:54 AM48 °FOvercast.5 mph74%30.20 "Hg10 mi
8:54 AM46 °FOvercast.No wind79%30.22 "Hg10 mi
7:54 AM44 °FOvercast.3 mph82%30.21 "Hg10 mi
6:54 AM43 °FOvercast.No wind82%30.21 "Hg10 mi
5:54 AM41 °FMostly cloudy.No wind89%30.18 "Hg10 mi
4:54 AM41 °FMostly cloudy.3 mph86%30.15 "Hg10 mi
3:54 AM41 °FOvercast.3 mph86%30.15 "Hg10 mi
2:54 AM42 °FMostly cloudy.No wind82%30.14 "Hg10 mi
1:54 AM43 °FOvercast.3 mph79%30.14 "Hg10 mi
12:54 AM43 °FOvercast.No wind79%30.15 "Hg10 mi
Weather by CustomWeather, © 2016

See weather overviewHow to use our weather pages